Regional Weather Roundup
Issued by NWS

Home | Current Version | Previous Version | Text Only | Print | Product List | Glossary On
Versions: 1 2 3 4 5 6 7 8 9 10 11 12 13 14 15 16 17 18 19 20 21 22 23 24 25 26 27 28 29 30 31 32 33 34 35 36 37 38 39 40 41 42 43 44 45 46 47 48 49 50
000
ASUS43 KDMX 100708
RWRIA

WEATHER ROUNDUP FOR IOWA
NATIONAL WEATHER SERVICE DES MOINES IA
100 AM CST WED FEB 10 2016

NOTE: "FAIR" INDICATES FEW OR NO CLOUDS BELOW 12,000 FEET WITH NO
SIGNIFICANT WEATHER AND/OR OBSTRUCTIONS TO VISIBILITY.

* - THESE STATIONS ARE NOT NWS STATIONS...THUS NOT UNDER NWS
QUALITY CONTROL.  THEY ALSO DO NOT REPORT WEATHER SUCH
AS PRECIPITATION OR FOG.

IAZ001>003-012>014-020>022-031>034-043>046-100800-
   NORTHWEST IOWA

CITY           SKY/WX    TMP DP  RH WIND       PRES   REMARKS
CARROLL *      CLOUDY    19  14  79 W8        30.14F WCI   9
CHEROKEE *     CLOUDY    18  14  86 W3        30.14F
DENISON *      CLOUDY    19  12  73 SW5       30.13F WCI  13
LE MARS *      CLOUDY    18  16  93 CALM      30.14F
ORANGE CITY *  CLOUDY    18  12  79 CALM      30.11F
SHELDON *      CLOUDY    16  12  86 CALM      30.10F
SIOUX CITY     CLOUDY    16  11  80 SE7       30.14F WCI   6
SPENCER        CLOUDY    17  11  77 NW3       30.12F
STORM LAKE *   PTCLDY    18  14  86 W8        30.12F WCI   7
$$

IAZ055>058-069>071-079>083-090>094-100800-
   SOUTHWEST IOWA

CITY           SKY/WX    TMP DP  RH WIND       PRES   REMARKS
ATLANTIC *     CLOUDY    21  14  73 NW6       30.17F WCI  14
AUDUBON *      CLOUDY    21  12  68 W6        30.14F WCI  14
CLARINDA *     CLOUDY    19  16  86 CALM      30.21F
COUNCIL BLFS * CLOUDY    19  14  79 SW6       30.17F WCI  11
CRESTON *      CLOUDY    21  12  68 NW13      30.16F WCI   9
HARLAN  *      CLOUDY    18  14  86 W6        30.19F WCI   9
LAMONI         CLOUDY    18  12  77 NW8       30.16F WCI   8
RED OAK *      MOCLDY    19  16  86 SW3       30.19F
SHENANDOAH *   MOCLDY    19  16  86 SW5       30.21F WCI  13
$$

IAZ047>049-059>061-072>074-084-100800-
   CENTRAL IOWA

CITY           SKY/WX    TMP DP  RH WIND       PRES   REMARKS
AMES           CLOUDY    13   6  74 N12       30.14F WCI  -1
ANKENY *       PTCLDY    14   7  73 N5        30.16F WCI   6
BOONE *        MOCLDY    10   5  79 W6        30.13F WCI   1
CHARITON *     CLOUDY    14   9  79 NW6       30.17F WCI   5
DES MOINES     CLOUDY    16   7  67 N5        30.16F WCI   9
GRINNELL*      PTCLDY    10   7  85 NW9       30.13F WCI  -2
KNOXVILLE *    MOCLDY    14   5  67 NW9       30.15F WCI   2
MARSHALLTOWN   PTCLDY     7   3  84 NW10      30.13F WCI  -8
NEWTON *       FLURRIES  12   7  79 N15       30.14F WCI  -4
PELLA *        CLOUDY    12   7  79 NW7       30.17F WCI   2
$$

IAZ004>006-015-016-023>025-035-036-100800-
   NORTH CENTRAL IOWA

CITY           SKY/WX    TMP DP  RH WIND       PRES   REMARKS
ALGONA *       CLOUDY    12   9  85 N8        30.12S WCI   1
CLARION *      PTCLDY     5   0  78 N7        30.13S WCI  -7
ESTHERVILLE    CLOUDY    14   7  73 N13       30.11F WCI   0
FORT DODGE *   CLOUDY     9   3  78 CALM      30.14F
MASON CITY     CLOUDY     5   0  79 NW14      30.12F WCI -12
FOREST CITY *  CLEAR      9   3  78 NW9       30.12S WCI  -5
WEBSTER CITY * MOCLDY     5   0  78 W8        30.13R WCI  -8
IOWA FALLS *     N/A      5   1  85 NW10      30.13F WCI -10
$$

IAZ007>011-017>019-026>030-037>042-050>054-066-100800-
   NORTHEAST IOWA

CITY           SKY/WX    TMP DP  RH WIND       PRES   REMARKS
CEDAR RAPIDS   CLOUDY     9   2  73 NW13      30.10S WCI  -7
CHARLES CITY * CLEAR      7   0  72 NW9       30.10F WCI  -7
CLINTON *      CLEAR     10   2  69 NW15      30.07S WCI  -7
DECORAH *      CLEAR      3  -6  66 W5        30.06S WCI  -6
DUBUQUE        CLEAR      8  -2  63 NW14      30.04S WCI  -8
MONTICELLO *   CLEAR      7  -2  66 NW7       30.09S WCI  -5
OELWEIN *      PTCLDY     3  -4  72 NW10      30.09F WCI -12
WATERLOO       CLOUDY     5  -2  72 W8        30.12F WCI  -8
$$

IAZ064-065-067-068-078-100800-
   EAST CENTRAL IOWA

CITY           SKY/WX    TMP DP  RH WIND       PRES   REMARKS
DAVENPORT      CLEAR     10   0  63 NW12      30.09R WCI  -5
IOWA CITY      CLEAR     11   2  67 NW9       30.14S WCI  -2
MT. PLEASANT * CLEAR     14   5  67 NW10G17   30.14R WCI   1
MUSCATINE *    CLEAR     10   3  72 NW8       30.14S WCI  -1
QUAD CITIES    CLEAR     11   1  64 NW15      30.10R WCI  -5
$$

IAZ062-063-075>077-085>089-095>099-100800-
   SOUTHEAST IOWA

CITY           SKY/WX    TMP DP  RH WIND       PRES   REMARKS
BURLINGTON     CLEAR     11   3  70 NW9       30.12R WCI  -2
FAIRFIELD *    MOCLDY    12   5  73 NW14      30.15S WCI  -3
FORT MADISON * CLEAR     10   3  72 NW8       30.14R WCI  -1
KEOKUK *       CLEAR     14   5  67 NW9       30.15R WCI   2
OSKALOOSA *      N/A     12   9  85 NW13G21   30.16F WCI  -3
CENTERVILLE *  CLEAR     14   9  79 NW10      30.18S WCI   1
OTTUMWA        PTCLDY    13   7  77 NW14      30.16S WCI  -2
WASHINGTON *   CLEAR     12   3  67 NW17      30.15S WCI  -5
$$

ABBREVIATIONS USED IN REMARKS
   TC - TEMPERATURES IN CELSIUS
  WCI - WIND CHILL INDEX
   HX - HEAT INDEX
  VSB - VISIBILITY
$$





USA.gov is the U.S. government's official web portal to all federal, state and local government web resources and services.